GFSSW_250_spd_096.txt.gz
Wind_Speed
87 93 95 93 89 87 90 100 129 130 124 124 116 107 92 93 97 89 85 85 85 80 76 69 72 75 72 70 67 62 57 57 49 41 29 28 24 30 28 28 32 26 34 25 24
77 85 91 96 90 90 93 101 120 131 128 129 119 108 93 93 95 95 91 84 83 87 76 73 77 74 73 73 67 58 63 61 53 42 40 31 30 27 31 31 26 27 22 28 23
74 82 89 95 92 93 93 96 108 129 134 131 132 119 97 99 98 102 99 89 86 91 86 81 81 77 74 70 67 60 57 55 51 46 34 35 27 29 31 34 26 25 31 30 23
74 80 87 94 93 94 92 94 106 117 134 132 137 121 108 102 98 104 103 93 91 85 87 83 82 80 78 69 69 63 56 40 46 47 44 38 34 30 30 23 26 29 33 34 19
74 81 84 89 91 94 95 94 101 110 135 137 137 132 117 102 99 105 101 98 97 95 86 87 83 83 79 78 69 64 53 49 46 45 40 26 27 28 34 34 35 34 39 24 18
74 80 82 90 94 93 96 94 101 110 122 136 140 133 125 108 112 110 101 104 102 96 91 90 87 88 83 78 72 69 62 56 61 50 52 45 38 33 39 31 29 31 25 18 18
75 78 87 88 93 93 96 97 105 114 120 134 140 134 123 113 105 107 110 101 107 101 97 86 83 85 85 80 71 61 72 59 63 49 40 38 39 42 43 32 33 25 20 20 21
78 81 79 86 89 95 96 99 98 112 126 135 135 144 132 118 101 103 109 112 104 102 96 93 78 81 79 78 75 69 62 66 51 51 47 45 46 43 42 39 31 32 27 32 30
73 73 81 86 90 96 95 99 100 110 117 134 135 141 132 126 111 99 105 109 110 103 102 94 96 82 75 79 77 71 63 62 61 46 51 54 57 46 44 44 44 43 43 38 44
72 74 84 88 92 95 99 99 104 109 118 125 140 134 133 124 117 105 107 106 106 109 108 102 92 93 84 70 74 77 69 61 55 58 52 57 60 57 46 46 49 50 47 43 48
66 72 84 92 93 97 103 101 108 101 110 120 116 129 132 134 127 110 105 112 109 108 109 105 98 90 84 83 78 76 76 77 69 63 58 60 56 55 51 49 46 42 43 39 41
70 73 81 88 94 97 99 101 98 98 104 115 118 134 133 131 125 119 110 106 111 108 107 112 97 97 94 89 84 77 76 76 79 70 68 57 51 57 56 56 53 53 48 45 41
72 78 80 88 95 99 101 104 103 104 108 110 118 122 136 136 130 124 111 113 107 111 111 108 107 108 101 94 89 85 85 82 82 75 67 71 66 56 55 58 53 50 49 46 45
69 73 76 82 95 102 103 102 102 103 108 108 113 117 130 137 130 129 116 106 103 108 109 110 112 111 109 102 100 98 91 88 89 89 77 71 66 60 54 54 52 55 56 55 58
68 71 75 80 85 94 102 101 102 105 112 117 117 117 125 133 130 130 118 114 115 96 100 102 103 103 104 102 108 97 96 94 94 93 85 82 69 64 62 57 59 61 58 54 54
64 69 78 81 83 92 105 102 108 113 118 113 113 117 124 129 131 125 127 117 117 108 104 103 104 105 105 108 105 98 96 94 97 94 90 85 83 78 72 76 72 74 68 66 65
72 70 74 79 80 92 102 106 113 115 112 109 108 111 113 117 129 125 123 122 116 118 107 105 105 102 102 102 104 103 101 96 97 97 88 87 84 73 75 79 81 73 73 76 73
78 75 70 77 80 90 100 106 109 104 99 101 102 106 107 115 127 127 125 130 122 115 114 108 111 109 106 104 99 97 100 105 100 94 83 89 88 77 78 79 76 77 78 78 73
83 83 77 77 77 86 95 105 96 94 97 101 101 106 109 114 117 127 120 119 119 118 115 103 106 109 107 104 104 104 106 101 101 98 95 90 82 77 75 76 77 75 77 81 79
87 88 84 81 79 81 91 87 96 94 101 99 100 102 101 99 112 119 127 115 119 115 118 119 114 113 108 107 107 106 108 110 109 107 103 95 90 85 79 77 76 79 80 80 79
88 90 83 85 82 84 79 82 86 94 91 101 103 98 100 97 100 113 116 111 116 111 117 114 125 120 117 113 109 110 108 107 108 107 101 102 95 95 94 95 93 90 85 86 87
89 88 83 88 89 86 80 74 83 97 90 96 100 100 97 97 100 104 114 109 107 111 109 114 117 122 116 110 108 111 109 113 112 105 105 100 95 95 99 100 98 94 92 92 97
94 89 84 88 86 91 86 84 88 90 95 94 99 93 95 99 99 100 106 111 110 105 112 113 117 123 122 119 111 106 106 108 109 109 104 101 88 81 82 89 89 88 90 91 93
98 88 83 89 85 88 86 84 83 85 92 94 95 92 93 98 98 102 104 105 111 108 112 115 117 119 119 119 119 115 112 110 113 115 106 104 93 93 93 93 92 93 96 98 93
100 95 90 86 87 87 86 85 85 82 87 92 94 93 94 97 98 100 104 104 107 109 111 117 119 110 114 118 124 121 121 119 122 117 117 103 101 101 103 101 105 105 102 103 103
104 99 98 94 89 88 89 86 85 86 86 89 92 94 95 96 94 94 99 106 106 109 112 112 113 109 108 116 120 124 128 128 125 121 123 113 112 106 107 109 108 109 112 113 115
106 101 99 98 91 87 88 88 86 85 85 88 93 95 97 97 96 94 98 95 108 111 115 107 110 108 109 115 117 124 117 117 118 121 122 118 104 111 114 113 112 110 113 120 119

GFSSW_250_spd_102.txt.gz
Wind_Speed
129 124 119 114 112 109 105 96 91 90 85 84 75 64 66 78 104 100 83 82 86 80 77 74 68 65 64 68 67 63 59 53 52 54 52 46 36 38 26 18 19 18 24 23 23
130 126 125 121 118 114 114 108 100 94 90 85 83 77 68 71 92 106 94 82 85 85 78 74 70 68 70 65 67 61 62 63 54 50 51 49 38 41 39 36 25 35 32 27 19
130 128 126 123 121 119 117 113 104 103 100 94 91 86 75 71 86 111 102 96 86 88 84 81 74 71 70 70 69 69 67 66 63 52 52 51 36 41 43 39 31 35 26 19 17
118 128 130 124 122 122 120 119 112 105 100 100 99 95 90 85 86 105 112 98 91 87 84 80 84 80 76 71 70 68 70 66 65 61 55 55 46 45 43 36 25 32 24 17 19
98 103 113 122 122 126 122 121 117 112 109 101 99 96 93 83 83 102 120 109 90 88 87 83 82 76 76 81 76 75 72 69 66 63 62 60 55 47 45 43 38 33 25 22 23
94 94 98 97 101 109 116 119 122 120 111 109 104 98 96 85 91 105 123 114 99 94 90 89 85 82 76 75 74 77 72 68 70 68 65 63 64 54 51 49 48 36 33 29 26
93 88 86 87 87 91 98 106 111 116 119 116 110 103 103 97 92 100 121 119 114 100 96 92 87 86 81 77 73 77 70 68 69 67 65 64 62 60 56 51 51 48 39 30 25
92 82 75 71 77 82 84 90 99 104 108 109 102 100 102 92 95 108 123 129 118 102 103 99 95 89 86 88 82 77 74 70 67 64 63 59 61 57 56 50 51 51 41 34 29
94 80 74 68 68 80 84 87 93 95 96 99 96 97 99 94 100 110 113 135 130 109 105 98 94 96 93 88 88 84 74 69 67 63 61 59 57 55 57 51 46 41 40 32 38
91 84 78 71 72 77 83 87 90 91 91 94 97 99 97 95 101 105 114 134 130 110 104 97 97 94 96 97 88 87 83 79 75 70 64 59 56 57 54 49 49 43 47 42 36
94 87 76 73 74 72 78 84 87 90 87 87 88 94 98 101 102 108 113 134 138 130 95 101 98 96 94 92 91 87 86 84 91 75 72 62 62 63 57 56 57 51 49 44 40
99 92 82 76 73 75 85 86 88 90 89 87 90 98 102 105 105 109 110 122 135 125 119 104 99 104 101 99 96 87 78 80 89 84 80 72 64 64 62 56 52 51 48 45 41
104 89 82 81 77 76 80 89 97 102 100 99 100 100 101 104 108 107 111 112 132 130 124 98 103 106 110 107 103 97 93 90 84 85 86 81 72 65 61 61 58 58 58 51 44
101 90 86 83 74 74 78 87 98 101 100 101 102 103 103 106 108 108 109 111 132 134 133 99 103 106 109 104 104 98 98 97 95 92 83 84 79 73 70 62 61 59 64 59 55
99 95 89 83 76 72 82 82 95 101 105 104 105 107 102 104 106 110 109 112 115 138 132 113 107 106 100 106 108 96 94 97 95 91 89 81 77 72 71 68 59 61 69 61 55
92 82 88 82 74 80 89 86 90 106 106 105 104 109 105 105 103 108 109 109 113 132 142 135 106 108 106 111 107 102 99 97 95 88 88 79 78 79 70 67 67 62 61 59 58
106 97 74 81 84 90 90 83 88 93 93 90 96 106 107 104 100 106 106 103 113 122 136 137 123 102 113 117 110 104 102 102 102 97 85 86 83 75 76 71 74 75 70 67 68
103 89 86 85 93 90 84 80 77 75 84 85 91 101 105 103 105 108 111 107 107 115 128 129 138 106 103 107 113 115 112 107 102 94 90 90 85 81 78 67 75 78 75 72 71
111 100 101 95 95 97 89 80 73 75 80 83 88 98 103 104 106 105 105 100 104 108 120 130 133 112 109 108 105 113 113 111 107 103 100 93 90 87 80 69 70 71 73 75 76
113 109 109 98 99 101 89 80 78 73 79 83 85 93 97 101 98 99 98 99 101 104 111 117 126 125 111 104 104 102 113 112 108 105 97 91 91 90 85 90 93 89 89 85 82
111 117 112 102 102 107 91 82 77 77 75 77 82 91 94 98 95 96 96 97 98 103 108 116 119 119 119 115 105 101 104 110 108 105 102 96 94 93 88 94 93 93 94 93 95
110 113 113 104 104 99 89 82 79 76 73 72 79 91 91 94 94 99 96 97 100 104 107 113 116 117 117 115 115 113 106 107 112 108 105 103 99 98 93 97 98 99 98 97 99
110 107 103 103 111 94 90 83 77 76 70 72 78 80 90 96 96 95 99 102 103 107 107 108 117 114 119 114 116 116 115 106 103 108 106 108 97 99 99 100 102 104 107 106 106
108 103 98 101 95 86 89 87 82 79 72 72 76 86 92 100 93 89 90 102 106 107 109 110 114 111 113 115 111 111 108 108 106 105 106 108 103 105 103 106 106 107 110 106 103
110 109 99 104 95 87 81 83 85 82 78 76 77 88 93 89 94 94 93 97 105 107 109 110 110 114 112 114 113 115 111 114 116 107 108 99 104 109 112 110 107 107 106 106 105
115 112 116 104 95 91 86 80 81 83 80 75 73 74 94 94 89 87 95 95 102 103 105 107 107 111 114 110 113 116 114 110 111 106 106 94 100 106 110 107 106 109 108 106 108
121 119 112 101 98 97 90 86 80 82 82 82 84 80 77 97 98 93 93 100 100 106 107 108 110 109 107 115 114 118 111 110 107 106 103 104 92 106 109 109 112 113 115 115 113

GFSSW_250_spd_105.txt.gz
Wind_Speed
124 119 115 112 107 107 102 96 88 90 83 81 74 75 78 61 63 62 86 82 86 66 62 74 72 68 64 62 59 61 63 58 63 54 56 54 51 40 24 24 32 34 17 16 23
129 125 121 117 115 110 106 103 96 91 88 85 80 79 77 78 63 68 63 83 83 81 68 69 72 73 69 65 63 60 61 62 58 56 55 53 48 46 45 32 35 20 17 26 29
131 128 128 123 119 115 110 108 104 97 94 92 88 82 77 75 72 70 69 71 92 81 70 73 77 76 75 71 63 61 60 62 57 54 54 52 51 47 40 39 39 38 34 26 29
128 132 130 131 121 120 117 110 108 104 100 96 95 90 82 81 80 72 65 71 95 85 73 78 74 71 70 66 59 61 65 60 66 59 57 55 45 46 43 42 41 39 34 32 23
123 127 131 126 126 123 118 116 112 107 106 99 95 92 87 85 79 77 70 63 80 99 72 83 78 72 72 75 70 68 69 61 61 61 63 57 54 53 46 36 39 37 35 27 23
108 116 122 131 128 125 121 121 118 115 109 104 101 99 90 85 84 81 77 69 70 90 91 82 82 81 78 75 73 74 72 72 66 62 59 60 59 58 49 44 44 38 39 36 31
100 102 107 118 128 129 126 121 120 115 113 110 104 103 97 95 87 91 83 80 75 88 103 82 87 91 81 77 69 74 71 70 69 65 60 61 60 58 57 52 50 45 45 43 42
100 97 98 103 114 128 129 124 123 120 120 117 113 108 103 97 95 91 90 85 78 81 88 99 89 93 93 85 84 81 79 73 71 69 65 59 61 62 59 56 55 53 48 46 45
99 94 92 92 97 110 124 130 131 126 124 122 117 110 108 100 96 98 93 95 88 82 94 113 93 92 97 91 89 86 80 74 73 68 62 62 69 66 62 60 56 59 53 47 45
103 98 93 89 89 97 102 113 120 125 131 126 119 114 109 106 107 102 102 98 93 86 89 114 105 97 93 85 86 86 84 78 77 74 68 61 67 67 63 60 58 55 53 47 45
88 97 93 88 83 85 91 102 111 118 123 118 116 117 111 115 111 104 102 100 97 89 84 107 107 94 91 93 93 89 85 83 77 72 69 67 67 63 61 57 52 53 50 50 47
88 92 95 91 85 85 86 82 85 92 100 106 106 116 116 113 110 107 105 105 97 92 95 107 112 95 96 93 98 94 89 85 81 78 75 69 68 67 63 59 55 50 46 49 51
92 89 96 90 87 82 75 74 83 89 98 97 98 99 102 104 105 102 105 103 98 94 92 94 104 120 102 98 105 98 97 91 85 85 84 82 74 66 62 58 67 50 49 53 55
92 90 95 93 84 73 73 79 83 90 100 102 102 100 98 99 105 99 98 103 100 95 93 96 107 126 102 102 104 101 99 92 90 91 84 84 77 74 68 68 67 55 57 61 60
101 95 82 86 84 66 72 76 80 92 99 100 102 103 100 100 96 95 97 102 100 97 92 95 104 117 94 99 108 107 104 101 100 97 95 90 87 80 79 70 64 63 60 65 68
104 95 94 96 85 79 79 74 80 94 99 99 98 100 98 100 98 103 100 104 104 101 96 100 117 121 99 101 108 110 107 104 103 102 99 92 88 81 69 64 66 69 71 70 71
105 95 83 93 94 89 86 80 81 85 87 94 96 99 99 99 99 102 103 103 106 102 98 99 102 112 115 107 108 104 105 106 107 102 92 93 85 67 63 71 71 69 72 72 73
100 94 70 90 100 93 91 84 80 81 84 87 95 101 100 103 107 106 103 106 108 105 103 100 100 108 115 114 101 107 111 108 107 101 95 92 81 72 79 77 76 74 74 75 76
110 109 103 91 95 94 93 84 70 70 76 77 86 100 105 107 109 109 107 105 108 106 103 99 98 104 112 117 110 108 110 107 112 108 104 98 92 91 90 85 78 79 77 76 79
120 114 109 98 90 90 90 77 72 76 80 81 81 81 97 106 108 109 106 102 107 106 105 96 100 104 111 117 121 105 110 112 109 112 109 105 100 90 83 82 84 83 82 83 84
125 116 99 103 95 95 97 88 87 83 80 79 82 75 82 97 105 108 100 99 105 106 104 99 99 103 113 118 116 104 105 110 108 105 107 107 99 96 91 87 90 85 88 89 88
122 115 111 101 98 102 91 85 84 79 82 77 81 81 85 89 97 101 98 97 102 106 100 100 98 102 109 116 118 114 109 110 112 108 97 102 97 94 92 91 95 94 96 94 91
124 116 108 104 110 106 99 94 90 83 80 78 75 75 74 74 83 90 95 98 106 107 104 101 102 104 111 115 119 119 114 110 112 115 111 105 94 98 97 95 100 101 100 102 96
130 124 116 117 113 105 96 94 97 89 84 78 76 71 70 71 72 76 87 98 106 107 105 104 105 107 105 103 110 112 109 113 117 119 113 109 102 105 105 103 104 105 106 105 102
137 134 128 119 118 109 106 102 101 97 93 88 80 70 66 64 67 68 82 94 104 103 104 106 104 105 103 105 110 114 115 116 118 117 118 88 103 105 108 112 111 111 108 108 107
140 136 134 136 125 119 117 109 110 105 94 94 90 78 69 65 60 64 73 84 93 101 103 104 103 103 105 106 109 111 117 118 115 111 110 96 89 95 105 109 111 112 112 113 112
131 136 137 131 131 124 124 110 107 108 107 97 94 85 70 66 66 71 76 83 87 95 100 99 101 102 103 107 110 113 106 111 112 109 107 103 78 89 99 106 109 112 114 114 112

GFSSW_250_spd_108.txt.gz
Wind_Speed
126 122 116 114 108 105 103 100 96 89 85 86 82 74 72 68 61 59 55 65 78 76 73 66 68 64 68 68 67 61 64 65 58 58 54 50 46 42 38 39 36 28 26 29 22
134 128 121 115 111 106 107 104 101 97 90 89 84 80 75 70 69 64 58 59 64 83 76 61 68 67 62 59 61 63 57 60 63 60 55 52 51 44 43 42 35 24 21 30 27
135 132 121 120 117 111 111 107 104 99 95 93 92 84 83 78 72 71 63 58 56 73 81 62 58 63 65 71 66 61 66 63 60 60 56 57 53 50 46 45 39 40 36 32 22
123 125 132 125 120 118 114 111 107 99 100 98 94 90 87 83 77 76 66 69 61 64 66 74 62 64 66 61 59 56 59 58 60 60 52 54 55 56 51 42 37 34 34 36 33
118 127 128 130 123 122 119 115 110 106 104 103 98 94 89 86 84 80 75 69 65 63 78 73 62 63 66 68 65 64 63 55 55 58 55 58 56 48 45 42 39 32 39 41 37
107 112 124 130 130 124 121 119 114 111 109 107 102 97 96 92 89 83 81 75 72 67 65 81 78 63 64 69 69 69 65 63 62 62 56 53 50 48 45 45 44 36 33 41 34
100 108 125 131 131 126 126 121 119 115 112 111 104 102 101 100 89 86 86 81 77 74 69 75 74 78 61 62 62 64 72 70 65 61 57 54 51 55 56 51 50 44 38 39 40
108 106 110 120 125 130 125 122 122 119 114 115 111 106 102 102 94 90 87 88 81 79 74 69 76 78 66 66 63 64 63 60 59 60 59 57 55 59 53 49 54 51 52 43 42
105 101 112 114 118 125 127 124 122 123 120 118 115 112 106 103 95 93 93 90 87 82 76 75 73 82 75 76 77 69 71 65 69 67 68 64 60 58 55 50 53 56 55 52 49
107 108 103 109 117 120 127 127 126 132 126 122 119 118 111 103 101 97 99 97 91 85 86 78 77 86 74 75 75 70 81 77 76 76 75 72 62 58 58 54 52 52 53 53 50
99 99 107 101 104 113 123 130 132 130 130 130 117 112 109 106 104 102 101 101 97 89 87 82 79 74 85 83 77 76 84 71 78 71 66 63 65 64 67 60 60 61 58 59 58
95 96 101 101 100 103 114 123 131 128 126 125 124 121 118 115 110 108 107 101 97 92 88 89 78 80 89 78 85 80 86 90 85 82 74 73 68 72 66 61 58 56 53 53 56
87 90 96 102 93 98 101 109 120 129 131 128 125 126 123 120 115 112 110 105 104 100 95 92 89 90 86 93 75 83 89 90 94 92 88 86 80 77 68 64 62 59 57 58 51
97 99 101 99 100 97 95 92 102 111 121 131 135 128 127 125 120 116 112 111 110 103 101 96 90 93 88 80 86 84 94 97 97 98 97 90 81 78 70 62 54 59 56 56 54
104 103 102 95 92 91 85 88 94 100 109 116 126 134 133 126 126 122 119 117 110 112 105 100 95 92 93 86 86 80 93 94 104 105 102 94 86 75 72 57 56 59 57 59 58
108 102 93 97 95 91 88 91 92 102 110 114 118 124 127 131 128 124 121 119 118 117 108 107 102 100 102 97 92 89 93 98 100 104 100 92 90 79 72 63 66 62 63 64 63
105 96 84 96 98 94 94 93 95 99 94 94 103 114 113 118 125 124 123 121 120 117 112 108 107 99 101 95 95 87 92 104 100 101 90 94 91 78 80 74 75 74 70 70 68
101 101 94 96 95 97 97 91 89 81 79 83 86 98 104 111 115 115 116 116 111 111 109 107 99 100 100 97 95 86 95 105 112 106 101 100 94 84 85 83 79 74 75 74 75
100 94 100 98 88 89 98 93 73 71 76 76 87 93 96 98 103 107 109 104 103 103 102 101 100 100 100 99 99 97 94 95 101 107 109 107 101 94 92 90 84 79 82 80 83
106 100 92 89 86 96 99 78 69 76 70 80 83 84 88 91 97 100 104 97 98 104 102 99 99 100 101 102 103 95 100 106 102 104 112 96 102 97 92 89 89 89 87 90 88
114 109 111 99 89 86 92 81 75 70 67 77 77 81 84 88 91 98 103 100 103 102 101 101 99 101 105 105 103 99 96 106 99 100 105 97 100 105 101 97 93 92 93 94 90
125 111 104 97 98 103 98 93 87 76 77 79 73 75 78 79 92 98 99 100 103 107 107 104 104 105 103 105 107 107 103 107 115 101 101 106 89 102 106 103 101 102 101 100 93
126 117 111 103 103 106 96 94 83 79 79 74 72 68 75 82 88 98 100 101 103 104 106 108 104 107 107 112 111 105 103 105 110 106 105 109 81 93 104 105 103 103 102 101 95
131 115 125 106 97 95 95 89 86 72 66 74 75 76 74 81 84 87 95 100 101 104 110 116 111 111 110 106 109 108 107 108 112 112 102 98 101 87 97 106 107 106 106 104 102
135 135 118 121 120 110 99 90 84 81 70 69 72 71 68 78 79 76 74 75 85 97 108 114 116 111 108 112 112 113 112 114 120 116 112 90 102 105 98 92 111 116 112 111 112
141 134 129 120 110 111 105 99 89 86 77 69 70 75 74 71 72 72 66 68 71 81 88 99 105 107 112 112 112 111 115 116 115 113 106 99 94 99 110 106 94 104 115 120 119
138 138 129 121 121 117 111 104 92 82 84 83 83 82 77 69 69 69 70 62 59 69 72 76 83 96 105 111 109 114 109 109 108 106 102 103 92 103 108 115 112 105 103 111 113

GFSSW_250_spd_111.txt.gz
Wind_Speed
122 123 121 121 120 116 109 103 99 95 91 86 84 81 79 78 68 67 65 80 77 73 79 63 49 62 58 60 68 61 62 56 54 54 49 45 42 40 42 40 36 30 24 17 20
118 121 122 121 122 120 112 108 104 98 95 90 87 91 83 77 75 72 70 65 73 78 82 82 74 64 57 60 61 55 59 64 63 58 52 52 50 47 43 45 37 30 25 22 22
116 117 125 118 121 124 117 112 107 102 100 96 92 90 88 82 80 75 74 71 65 68 69 86 70 77 75 60 60 61 65 63 59 62 62 60 57 50 48 46 42 37 35 30 30
118 119 120 120 122 127 121 117 110 106 104 100 96 94 93 84 83 80 73 74 67 70 61 66 74 57 75 74 74 69 65 64 59 59 58 55 54 53 51 46 45 45 39 34 25
116 121 122 123 126 126 127 120 114 108 107 102 99 96 93 86 88 83 79 73 68 68 68 56 72 73 64 73 71 64 63 63 60 60 56 59 49 47 48 48 49 48 43 36 26
119 117 122 121 125 128 126 124 117 110 109 106 103 98 94 91 93 88 83 80 72 72 67 66 66 58 48 57 66 72 69 63 61 60 61 53 53 48 48 44 40 42 39 34 27
114 112 118 123 120 122 125 125 117 113 109 110 105 101 102 101 96 94 88 85 81 75 70 66 64 65 54 54 59 69 66 68 73 65 63 60 52 49 45 44 43 40 42 32 28
115 116 115 121 123 124 126 124 123 117 112 112 110 107 106 102 100 97 90 86 85 79 76 70 66 67 66 57 57 66 63 65 60 56 58 56 53 52 48 46 42 38 40 42 39
114 111 112 123 126 126 121 121 122 120 115 114 114 111 108 102 101 98 94 92 88 82 82 75 70 67 70 63 55 55 59 66 64 62 62 58 58 55 54 51 50 43 47 44 46
110 112 112 118 122 123 125 126 125 120 121 119 120 117 111 102 102 101 98 97 93 86 85 80 73 74 67 71 59 54 60 70 66 66 65 64 61 63 60 51 51 48 45 41 44
109 108 109 110 118 124 129 131 128 128 130 123 115 110 110 109 106 104 101 99 93 91 86 83 79 74 68 76 61 67 60 62 72 75 70 70 65 60 56 55 51 54 49 48 45
108 110 106 106 115 124 126 130 128 124 126 119 123 118 117 113 109 109 104 99 94 93 90 86 82 79 77 73 72 71 66 64 64 70 62 62 63 63 60 61 54 58 53 52 48
107 106 105 104 109 115 119 125 121 125 126 128 126 123 122 120 113 110 106 103 99 98 94 89 89 87 83 79 77 69 75 77 59 59 69 66 64 65 66 67 65 58 56 53 59
110 100 109 101 109 109 109 122 125 119 127 133 133 129 127 121 116 113 110 108 103 101 99 96 93 90 89 83 83 82 81 76 68 70 69 76 70 72 76 75 69 66 54 58 66
113 113 108 99 107 107 104 111 118 121 117 120 135 134 130 128 119 117 110 109 105 103 101 95 95 94 92 90 88 83 86 83 84 80 80 71 70 72 78 76 65 64 61 66 64
112 107 99 99 100 103 100 104 109 121 127 131 139 137 132 127 125 119 117 113 109 107 104 102 99 97 96 96 95 89 91 89 87 82 76 78 80 73 75 71 68 70 67 72 66
116 108 112 107 101 101 106 106 108 117 121 122 122 133 133 128 124 123 120 119 113 111 106 105 103 100 100 99 93 92 88 93 92 84 74 77 84 74 82 87 83 79 75 78 68
111 96 95 104 103 106 109 105 103 107 113 113 118 121 134 127 127 125 123 121 116 112 111 112 110 105 102 101 96 98 96 96 98 98 81 79 85 72 86 93 90 88 88 83 76
105 108 106 108 104 107 106 105 101 101 104 106 114 119 122 129 122 122 121 118 118 115 114 113 113 109 108 108 107 103 101 102 99 100 91 82 79 83 75 89 94 89 92 88 84
94 115 109 108 108 109 107 102 102 100 102 104 103 107 111 117 115 120 119 113 116 119 117 118 117 117 117 114 111 106 106 108 108 102 95 87 75 82 90 74 87 96 96 94 93
114 112 114 103 104 99 102 100 97 92 93 94 93 94 100 105 107 109 114 115 117 120 120 119 118 118 120 115 111 111 110 111 111 109 98 96 83 77 96 91 82 92 98 96 98
124 118 117 116 110 106 102 101 97 94 92 91 91 92 89 92 91 96 98 102 108 110 114 117 122 126 119 119 115 115 113 115 112 110 109 105 88 81 90 98 93 92 95 98 91
122 124 119 111 110 104 101 97 97 92 88 84 88 86 86 89 93 96 99 104 104 106 109 112 117 120 123 124 123 119 112 111 110 115 114 110 86 94 92 94 103 90 102 102 99
130 119 118 115 112 106 103 98 95 93 87 79 85 80 83 86 90 93 93 98 98 104 111 115 116 114 114 115 117 116 114 116 116 120 110 114 93 94 96 98 104 109 99 104 105
129 127 111 120 116 102 104 100 99 94 81 74 73 71 75 79 84 84 88 89 94 99 104 107 107 108 108 112 110 112 111 114 113 108 114 98 105 95 99 100 106 108 109 98 98
130 126 125 115 113 115 112 109 101 92 82 70 55 72 73 73 74 72 73 77 78 82 90 98 101 106 109 110 110 110 111 115 114 110 106 95 97 97 98 105 104 110 113 107 96
126 120 124 122 114 107 107 103 104 94 83 78 75 76 64 66 71 75 78 83 83 82 80 82 81 91 98 108 110 116 108 112 115 110 104 104 92 103 104 109 109 109 108 106 106

GFSSW_250_spd_114.txt.gz
Wind_Speed
112 109 125 129 126 121 113 116 115 106 101 94 94 92 85 87 78 70 66 75 81 81 68 75 73 61 61 56 69 67 61 55 54 49 45 46 42 42 39 35 30 26 26 23 15
110 109 118 126 128 123 124 120 118 111 103 98 99 92 90 86 82 74 78 66 83 81 83 62 67 66 62 62 64 62 59 66 52 55 51 48 49 41 39 37 32 34 36 32 20
105 108 115 131 133 127 125 121 122 115 108 103 100 97 93 87 88 81 79 76 70 73 87 80 61 67 67 69 63 64 60 59 69 57 56 52 51 50 46 41 37 37 39 36 35
105 107 119 126 130 126 126 126 123 117 114 109 103 98 95 89 86 89 82 76 71 66 70 89 85 69 55 63 66 72 68 64 69 68 61 55 54 51 50 45 45 41 40 37 38
111 111 115 128 127 127 129 127 123 122 117 112 108 105 101 93 90 89 85 79 76 73 63 73 76 87 84 71 65 66 69 63 67 67 56 62 58 55 50 52 51 53 49 44 39
115 112 116 126 128 129 129 126 123 123 121 116 110 104 100 93 95 92 90 85 83 75 74 69 63 68 78 76 62 65 66 61 60 70 66 60 59 57 50 50 47 44 39 40 43
124 115 113 120 129 130 134 131 129 125 123 120 113 106 100 104 96 94 96 91 87 81 77 72 68 66 71 62 56 65 66 68 68 66 65 62 58 58 55 50 49 44 40 38 35
127 111 111 127 127 136 137 137 133 129 124 121 117 113 107 107 101 97 95 93 89 84 80 76 72 67 65 67 56 60 68 69 71 69 63 62 62 58 58 57 51 45 49 39 37
122 111 115 117 123 127 132 133 132 131 126 123 122 115 111 108 105 101 98 94 92 88 83 78 73 70 67 64 67 51 56 71 72 71 70 74 67 61 61 58 53 49 46 37 33
114 114 114 118 118 125 125 133 132 133 131 125 120 124 113 106 105 102 100 99 94 88 86 84 79 72 75 64 65 56 53 61 72 74 71 70 70 69 67 61 62 53 48 49 41
114 120 120 112 116 117 123 128 137 141 137 130 130 116 115 110 110 105 103 101 97 93 91 89 82 73 77 73 68 68 65 55 61 69 70 70 72 72 70 61 64 54 55 52 43
120 122 117 121 114 118 129 130 128 125 127 130 122 121 119 112 110 106 104 102 102 96 94 90 85 82 82 78 74 69 69 59 54 56 68 70 70 67 61 60 60 60 55 56 48
114 118 115 113 110 114 122 123 129 129 124 117 120 121 119 118 115 111 104 103 102 99 96 92 88 88 87 83 80 68 76 66 61 55 63 70 72 65 65 65 64 65 60 58 54
117 119 116 111 112 121 125 125 122 126 124 126 125 133 127 123 119 114 110 108 109 102 99 100 97 91 89 89 84 75 78 73 70 64 56 68 72 68 72 71 69 70 68 58 60
115 112 108 114 115 111 120 125 121 125 125 124 125 127 122 124 117 115 110 108 108 104 103 98 97 95 93 90 89 86 84 82 72 70 68 60 61 72 78 75 74 74 66 59 63
111 112 106 108 106 112 116 116 125 130 134 130 129 128 130 128 124 119 116 109 107 109 107 108 103 101 99 97 95 92 85 89 81 77 74 68 57 53 73 81 75 73 70 68 68
117 113 109 107 103 108 115 118 127 132 135 131 133 131 129 122 122 121 119 114 111 106 105 105 102 99 99 99 95 91 92 89 89 82 72 79 72 57 58 73 80 79 78 77 73
117 105 101 100 105 102 107 115 125 129 134 131 128 126 132 127 124 125 124 118 111 108 104 104 103 100 100 98 94 94 93 96 96 90 86 83 76 68 70 66 69 83 86 86 82
124 118 113 111 106 99 108 113 120 126 132 133 126 131 131 130 129 124 120 119 115 112 110 108 105 104 101 102 100 101 99 98 99 98 96 86 82 79 79 78 74 78 80 91 86
122 115 110 106 105 105 106 110 112 118 125 127 126 123 119 122 128 129 121 115 115 114 114 112 113 111 110 108 104 102 103 102 102 101 100 95 85 83 86 86 82 76 85 82 84
123 116 118 116 107 107 99 95 108 109 117 118 117 113 113 120 123 126 127 120 118 118 114 114 115 114 114 110 108 107 108 107 106 104 104 102 96 91 90 93 91 88 82 85 88
122 126 121 115 113 115 100 94 97 111 111 116 118 116 105 110 123 123 129 126 122 121 119 120 119 116 114 114 114 115 114 113 110 110 106 106 99 95 95 94 102 91 92 85 89
125 121 122 126 118 112 108 109 105 103 102 105 114 118 115 118 121 123 121 125 123 121 120 119 120 121 120 119 119 116 115 115 117 117 112 111 98 101 98 101 101 106 101 95 89
128 129 131 132 123 118 118 113 110 107 106 109 109 112 113 114 119 117 117 125 116 118 121 123 124 120 120 115 117 120 123 122 126 126 114 114 103 108 109 107 108 110 106 103 97
132 128 125 120 121 112 108 112 109 109 107 105 108 106 104 102 105 109 112 118 117 116 121 123 122 123 124 120 122 122 122 122 124 118 119 105 108 106 107 111 111 109 109 107 100
130 125 124 119 117 116 119 114 108 103 104 100 97 98 92 96 93 92 102 104 104 109 118 115 111 114 118 122 123 125 126 124 121 115 117 108 112 108 109 109 113 122 118 114 109
125 127 123 119 116 113 110 115 113 109 102 99 97 93 88 85 88 92 102 105 105 107 106 108 108 110 109 111 116 123 113 114 118 117 118 117 104 112 112 112 116 122 119 117 116

GFSSW_250_spd_117.txt.gz
Wind_Speed
110 111 116 129 133 128 123 119 114 109 106 104 98 96 91 89 77 76 77 77 71 61 71 77 74 71 67 64 61 60 53 54 52 52 48 46 44 39 37 35 35 32 32 24 15
98 106 116 117 132 134 128 123 118 113 108 106 103 100 97 90 84 81 78 76 81 75 63 75 76 75 69 67 67 61 59 61 56 57 54 49 48 46 41 39 37 37 29 25 26
86 97 112 107 118 137 135 126 122 118 114 109 107 105 101 95 86 83 78 75 77 83 67 67 81 77 67 66 68 68 71 66 60 58 56 51 46 46 44 42 40 36 34 28 29
79 94 102 100 111 127 142 133 127 123 118 115 112 111 107 101 91 91 84 80 76 77 74 68 59 63 71 76 71 66 65 73 68 63 59 53 50 48 47 42 45 41 36 36 33
75 91 96 97 105 118 138 140 131 128 121 116 116 114 111 105 91 93 86 86 78 78 74 75 70 62 65 77 78 72 67 67 63 70 67 66 61 52 54 50 45 49 45 42 40
74 90 93 98 105 110 125 141 139 134 126 120 117 115 112 105 100 96 90 89 82 79 75 75 69 73 62 64 76 75 70 70 65 69 65 62 52 58 56 55 51 49 46 43 40
76 85 89 97 105 113 123 138 145 139 130 124 119 115 113 107 104 102 96 94 91 85 80 78 73 70 73 60 65 74 76 71 69 66 60 68 67 62 61 56 57 55 47 45 42
77 84 89 99 106 118 120 137 144 140 134 125 122 121 116 115 111 106 100 96 95 90 83 81 78 69 79 74 65 69 75 75 72 66 61 67 68 56 59 63 48 56 53 54 52
77 84 90 99 109 111 121 124 135 143 137 132 128 126 122 118 114 109 104 99 96 94 89 84 82 72 74 73 77 65 54 63 70 69 66 66 69 58 58 58 64 63 55 53 49
78 86 97 105 105 105 113 121 130 139 140 139 134 130 123 118 117 116 109 101 97 94 93 89 87 80 70 69 65 62 65 63 65 72 72 70 74 65 66 64 63 64 57 58 53
80 91 103 106 106 107 120 128 139 147 150 147 141 130 122 123 123 115 114 107 100 98 96 93 88 81 77 72 68 66 65 61 59 65 72 73 77 71 64 63 65 63 61 63 61
86 94 100 110 113 122 121 129 128 136 142 143 137 132 128 126 126 118 116 110 105 100 95 95 87 84 82 81 76 70 71 66 60 59 64 76 81 74 68 69 67 65 62 63 61
87 92 98 112 119 117 116 122 127 136 140 138 137 134 130 128 124 120 117 111 109 103 98 92 88 89 88 84 81 73 73 72 70 65 58 64 76 75 73 72 71 67 66 67 67
87 92 103 113 116 118 115 119 123 128 134 137 142 138 134 132 129 124 124 116 116 106 102 99 97 93 90 86 82 79 80 78 73 74 66 53 59 73 75 75 74 76 73 72 70
91 100 107 111 117 111 112 114 125 137 143 140 141 136 132 133 127 126 125 122 116 109 105 100 97 94 95 92 89 85 84 83 78 78 71 61 52 59 69 78 81 80 77 74 70
93 109 112 110 112 113 111 113 120 131 136 142 142 138 136 135 134 129 124 121 118 116 113 106 101 99 99 97 93 91 89 88 85 84 76 70 57 53 56 73 80 82 80 78 74
105 115 117 113 110 112 113 109 121 132 139 143 140 138 138 137 133 129 123 123 120 118 112 110 106 104 101 102 96 93 88 93 90 86 78 73 68 56 63 64 68 76 84 84 76
119 121 123 123 117 120 118 122 124 124 130 134 129 133 137 136 128 128 125 123 121 113 115 108 104 101 99 102 101 97 95 93 93 90 86 82 73 64 71 71 69 66 71 86 84
128 128 128 119 116 117 117 123 121 121 125 132 131 130 129 133 130 129 122 118 116 117 115 108 106 102 101 102 101 101 101 101 100 97 95 89 83 80 73 79 74 72 72 70 71
134 135 131 129 123 116 112 105 120 116 118 124 128 128 130 132 127 127 124 120 117 116 114 112 110 108 107 105 104 102 101 102 104 103 99 92 91 86 84 82 85 81 79 79 76
136 136 137 122 124 118 115 101 99 112 114 125 123 123 122 120 115 121 122 123 122 120 119 119 115 110 110 107 104 104 104 105 104 105 104 100 96 94 90 89 90 89 88 88 86
138 129 129 124 124 128 113 103 109 111 114 115 120 118 117 112 110 121 126 125 123 122 120 118 116 113 110 109 109 107 105 108 110 108 107 103 95 95 95 95 96 95 95 95 95
132 137 129 131 130 128 119 116 109 109 112 118 119 119 114 118 120 119 123 128 122 120 118 120 122 120 119 115 112 109 108 106 108 109 105 108 94 97 103 103 103 104 105 101 100
128 122 122 121 115 118 119 117 113 110 108 116 113 118 114 116 127 127 126 125 118 122 125 126 127 124 119 116 116 114 114 114 117 119 110 112 98 102 102 106 106 107 110 109 106
135 129 124 116 116 107 104 104 105 112 113 110 114 112 111 115 122 127 123 120 122 124 125 124 120 119 120 123 119 119 119 122 121 114 119 104 107 108 108 111 111 110 113 116 116
134 127 122 122 114 111 113 114 109 107 104 111 107 98 107 111 107 106 115 121 121 125 127 126 128 126 124 122 121 124 125 125 118 114 118 110 110 105 106 112 115 118 119 119 118
123 128 127 127 121 115 116 109 106 103 101 101 97 92 91 89 104 108 113 122 124 129 131 128 129 130 129 127 130 129 116 117 115 118 116 116 107 113 115 114 117 123 122 121 122

GFSSW_250_spd_123.txt.gz
Wind_Speed
98 99 101 104 104 108 108 112 116 120 123 116 110 103 103 99 100 91 88 85 81 80 74 72 73 74 76 73 73 70 64 61 60 50 49 48 43 36 31 33 36 33 27 16 19
96 100 100 103 104 107 109 108 112 120 127 122 114 108 109 103 102 97 90 90 88 80 78 71 74 71 65 75 74 74 69 66 64 58 53 51 48 43 36 31 36 33 27 18 18
94 99 101 102 103 107 108 109 110 119 129 126 119 112 110 108 105 99 95 92 90 88 80 76 70 74 72 65 73 72 69 66 65 64 60 55 50 48 43 34 35 33 26 24 21
92 100 102 103 103 105 107 109 112 118 125 130 125 118 114 112 108 102 99 94 92 91 82 71 72 73 77 70 69 62 67 69 71 70 64 60 50 48 46 42 37 37 32 29 26
90 97 102 105 104 104 106 108 111 117 122 132 130 123 118 117 105 104 100 98 94 90 83 79 77 72 79 78 76 71 69 68 63 59 58 58 49 51 52 47 44 36 35 31 30
88 95 101 106 107 106 107 110 112 113 120 135 135 129 122 118 109 107 106 102 96 89 86 83 81 80 73 72 76 75 74 67 65 60 59 53 47 44 46 42 44 40 39 36 34
84 93 98 103 107 107 108 109 109 111 119 129 139 137 128 118 116 110 110 106 101 96 94 87 85 79 85 69 79 73 75 72 67 65 65 56 48 51 49 46 48 42 39 34 35
76 87 95 101 105 106 107 108 109 111 118 126 140 139 131 125 120 114 112 109 107 102 99 92 85 81 83 79 66 73 78 77 74 72 68 62 57 58 49 50 50 47 42 44 42
71 81 89 94 100 105 108 110 111 114 118 128 139 140 133 128 126 119 113 112 111 107 100 92 90 82 76 85 75 60 64 77 80 73 69 67 70 64 54 55 52 48 48 49 50
66 74 80 89 97 104 108 111 114 116 120 128 139 145 136 131 128 122 119 117 114 112 104 102 94 89 80 76 75 63 60 57 70 80 76 75 73 63 59 56 53 53 52 52 54
60 66 74 83 91 97 103 109 109 111 112 118 128 137 131 129 130 127 125 121 117 118 108 107 99 85 79 74 74 74 71 61 54 57 71 78 70 66 64 61 58 53 54 51 55
65 66 70 76 82 88 93 97 103 109 113 115 123 138 139 138 134 134 129 127 120 117 111 109 101 89 85 83 79 78 74 68 61 55 56 71 75 73 67 68 61 58 57 59 56
65 66 68 69 72 72 73 78 90 98 112 114 119 130 144 142 137 134 127 124 117 115 111 102 96 96 90 85 80 79 76 76 68 64 58 57 69 76 76 71 68 70 59 61 59
72 70 71 71 69 71 66 75 76 87 102 113 121 128 142 149 145 134 128 125 123 115 111 109 104 99 98 91 86 83 80 79 76 71 64 57 56 65 69 73 73 68 64 62 61
79 77 75 74 74 75 77 75 77 85 100 104 119 123 131 144 145 141 134 133 126 117 114 107 102 102 98 94 91 85 83 83 81 78 71 65 57 58 60 63 66 69 69 65 66
85 84 82 78 78 77 78 77 79 94 91 94 106 119 130 140 145 143 139 135 129 124 119 115 111 108 102 102 100 93 91 86 82 80 77 67 65 61 57 60 59 60 65 68 69
91 89 86 84 84 85 82 82 89 95 84 89 99 107 126 135 145 145 143 143 138 134 128 120 118 113 108 108 106 99 96 95 91 87 76 72 69 59 64 62 62 62 61 59 62
89 89 89 87 90 87 85 88 95 85 80 90 100 107 120 131 144 150 145 142 140 130 123 118 117 115 110 106 101 96 96 98 88 84 80 75 71 62 69 72 68 66 67 64 62
91 92 92 90 91 91 92 94 91 83 87 96 107 110 114 129 142 146 149 142 138 132 128 122 117 111 105 103 104 103 101 97 93 89 82 82 73 71 77 76 72 70 70 69 67
90 89 92 96 99 98 99 95 88 84 91 100 112 113 114 126 137 148 150 146 135 130 126 122 117 115 112 110 111 106 102 103 98 94 90 88 82 77 78 81 80 80 76 73 73
84 84 89 94 98 101 94 90 87 89 101 110 110 113 116 122 132 151 149 142 135 134 130 126 121 119 118 116 109 104 105 104 100 99 97 89 87 84 83 84 85 84 83 80 78
76 80 87 91 94 95 93 90 92 99 104 111 108 107 107 113 124 132 141 140 137 134 132 128 125 123 121 114 110 109 106 104 102 95 94 91 89 91 89 90 90 87 87 86 83
75 81 88 90 92 90 94 96 104 104 111 115 117 111 109 108 122 126 132 134 140 141 138 132 128 123 121 118 116 112 105 106 106 105 102 100 91 90 90 91 93 95 94 93 91
76 82 86 86 91 96 100 101 103 117 120 119 115 114 113 111 108 112 123 133 140 137 138 134 131 127 119 110 109 107 107 108 109 108 103 99 96 94 93 94 97 99 97 95 94
75 79 81 86 89 99 103 105 123 122 121 121 119 115 113 107 112 116 112 119 137 136 138 136 129 127 122 123 118 112 111 111 110 105 108 98 103 102 101 102 102 99 98 96 95
76 80 81 90 98 99 98 123 128 124 124 124 122 116 110 105 94 94 96 104 112 126 130 133 128 126 124 123 123 119 115 116 113 110 105 100 100 99 101 103 101 100 100 100 100
76 80 84 94 102 101 120 134 133 126 120 123 118 107 108 97 88 86 86 103 113 109 111 116 115 116 122 123 125 127 118 111 108 111 104 107 97 105 107 107 105 104 104 104 102